Location: Pabrico
(37.5827°N, 122.0063°W)
Time: 09:49:59
(UTC+00:00)

Cosmos 1674 - Pass Details

Date: 13 April 2024
Orbit: 439 x 454 km, 82.5° (Epoch: 23 May)

Event Time Altitude Azimuth Distance (km) Brightness Sun altitude
Rises 11:27:01 0° 127° (SE) 2,418 6.3 -24.1°
Enters shadow 12:34:21 -56° 189° (S) 11,143 9.4 -12.3°
Maximum altitude 13:04:28 49° 279° (W) 573 2.6 -6.7°
